Current Weather Conditions: station 63109

sailwx.info

Wind from 180 at 18 knots

Air temperature 15.6° C

Last reported at 2019-Aug-24 08:00 UTC.
Time now 2019-Aug-24 09:55 UTC

Location: N 59°36' E 001°30'.
View on Google Maps.

See reports from other nearby stations

  
Tides and Currents Weather Stations Pressure Air Temp Water Temp Dewpoint Dewpoint Depression Visibility Wind Speed Wind Dir Waves Ship Positions
date/time (UTC)wind fromknots sea level pressurealtimeterstation pressurevisibilityair tempwater tempwave heightnotes
2019-Aug-24 08:00 180 18 15.6
2019-Aug-24 07:00 190 20 15.3
2019-Aug-24 06:00 190 20 15.1
2019-Aug-24 05:00 180 18 14.9
2019-Aug-24 04:00 180 17 14.8
2019-Aug-24 03:00 180 14 14.7
2019-Aug-24 02:00 180 12 14.5
2019-Aug-24 01:00 170 9 14.4
2019-Aug-24 00:00 180 11 14.6
2019-Aug-23 23:00 200 13 15.0
2019-Aug-23 22:00 190 11 15.1
2019-Aug-23 21:00 210 7 16.6
2019-Aug-23 20:00 210 11 16.9
2019-Aug-23 19:00 230 6 16.8
2019-Aug-23 18:00 220 8 16.4
2019-Aug-23 17:00 260 7 15.2
2019-Aug-23 16:00 250 11 15.1
2019-Aug-23 15:00 250 12 15.6
2019-Aug-23 14:00 230 12 16.5
2019-Aug-23 13:00 210 9 16.4
2019-Aug-23 12:00 220 11 15.3
2019-Aug-23 11:00 230 14 16.0
2019-Aug-23 10:00 220 12 16.2
2019-Aug-23 09:00 250 13 13.9
2019-Aug-23 08:00 250 18 14.0
2019-Aug-23 07:00 250 20 13.9
2019-Aug-23 06:00 260 22 13.8
2019-Aug-23 05:00 260 25 13.9
2019-Aug-23 04:00 250 21 14.0
2019-Aug-23 03:00 250 25 14.2
2019-Aug-23 02:00 250 24 14.4
2019-Aug-23 01:00 250 25 14.5
2019-Aug-23 00:00 250 25 14.7
2019-Aug-22 23:00 240 25 14.9
2019-Aug-22 22:00 230 25 15.7
2019-Aug-22 21:00 220 26 15.9
2019-Aug-22 20:00 200 26 15.6
2019-Aug-22 19:00 200 22 15.2
2019-Aug-22 18:00 190 20 14.9
2019-Aug-22 17:00 190 20 15.6
2019-Aug-22 16:00 200 19 16.0
2019-Aug-22 15:00 200 17 16.4
2019-Aug-22 14:00 200 18 15.4
2019-Aug-22 13:00 200 15 16.1
2019-Aug-22 12:00 200 13 16.0
2019-Aug-22 11:00 220 14 15.6
2019-Aug-22 10:00 220 14 15.5
2019-Aug-22 09:00 240 9 13.5